timestamp,surface_pressure_avg,surface_temp_avg,battery_voltage,lat,long
2019-07-26 00:00:00+00:00,223.0331,16.11,13.05,47.84626,-54.09684
2019-07-26 00:10:00+00:00,227.7798,16.3,12.89,47.84626,-54.09684
2019-07-26 00:20:00+00:00,227.2247,16.2,12.97,47.84626,-54.09684
2019-07-26 00:30:00+00:00,227.6797,16.2,12.97,47.84626,-54.09684
2019-07-26 00:40:00+00:00,231.3531,16.28,13.05,47.84626,-54.09684
2019-07-26 00:50:00+00:00,231.0381,16.17,13.05,47.84626,-54.09684
2019-07-26 01:00:00+00:00,231.4448,16.19,12.97,47.84626,-54.09684
2019-07-26 01:10:00+00:00,236.438,15.9,12.89,47.84626,-54.09684
2019-07-26 01:20:00+00:00,239.1981,15.73,12.97,47.84626,-54.09684
2019-07-26 01:30:00+00:00,236.963,15.7,12.97,47.84626,-54.09684
2019-07-26 01:40:00+00:00,240.2631,15.38,12.97,47.84626,-54.09684
2019-07-26 01:50:00+00:00,244.8764,15.1,12.97,47.84626,-54.09684
2019-07-26 02:00:00+00:00,243.7263,15.1,12.97,47.84626,-54.09684
2019-07-26 02:10:00+00:00,243.343,15.1,12.81,47.84626,-54.09684
2019-07-26 02:20:00+00:00,252.958,15.08,12.97,47.84626,-54.09684
2019-07-26 02:30:00+00:00,257.0464,15.1,12.97,47.84626,-54.09684
2019-07-26 02:40:00+00:00,254.9347,15.2,12.97,47.84626,-54.09684
2019-07-26 02:50:00+00:00,262.3297,15.2,12.97,47.84626,-54.09684
2019-07-26 03:00:00+00:00,272.8331,15.2,12.89,47.84626,-54.09684
2019-07-26 03:10:00+00:00,273.993,15.2,12.81,47.84626,-54.09684
2019-07-26 03:20:00+00:00,277.5681,15.21,12.89,47.84626,-54.09684
2019-07-26 03:30:00+00:00,283.9447,15.2,12.97,47.84626,-54.09684
2019-07-26 03:40:00+00:00,288.4064,15.1,12.97,47.84626,-54.09684
2019-07-26 03:50:00+00:00,291.3364,15.1,12.97,47.84626,-54.09684
2019-07-26 04:00:00+00:00,298.2547,15.0,12.89,47.84626,-54.09684
2019-07-26 04:10:00+00:00,299.9012,14.9,12.81,47.84626,-54.09684
2019-07-26 04:20:00+00:00,295.4397,14.98,12.89,47.84626,-54.09684
2019-07-26 04:30:00+00:00,295.588,14.9,12.89,47.84626,-54.09684
2019-07-26 04:40:00+00:00,300.5847,14.8,12.97,47.84626,-54.09684
2019-07-26 04:50:00+00:00,303.1464,14.89,12.97,47.84626,-54.09684
2019-07-26 05:00:00+00:00,303.4097,14.9,12.89,47.84626,-54.09684
2019-07-26 05:10:00+00:00,310.928,14.6,12.81,47.84626,-54.09684
2019-07-26 05:20:00+00:00,310.9313,14.73,12.89,47.84626,-54.09684
2019-07-26 05:30:00+00:00,303.873,14.9,12.89,47.84626,-54.09684
2019-07-26 05:40:00+00:00,303.9863,14.8,12.97,47.84626,-54.09684
2019-07-26 05:50:00+00:00,312.0263,14.63,12.97,47.84626,-54.09684
2019-07-26 06:00:00+00:00,306.058,14.89,12.89,47.84626,-54.09684
2019-07-26 06:10:00+00:00,302.463,14.9,12.81,47.84626,-54.09684
2019-07-26 06:20:00+00:00,304.3914,14.6,12.89,47.84626,-54.09684
2019-07-26 06:30:00+00:00,302.5913,14.69,12.89,47.84626,-54.09684
2019-07-26 06:40:00+00:00,296.9431,14.79,12.89,47.84626,-54.09684
2019-07-26 06:50:00+00:00,296.8497,14.8,12.89,47.84626,-54.09684
2019-07-26 07:00:00+00:00,298.9413,14.79,12.81,47.84626,-54.09684
2019-07-26 07:10:00+00:00,297.103,14.84,12.81,47.84626,-54.09684
2019-07-26 07:20:00+00:00,298.0231,14.9,12.89,47.84626,-54.09684
2019-07-26 07:30:00+00:00,298.2014,14.9,12.89,47.84626,-54.09684
2019-07-26 07:40:00+00:00,292.933,14.86,12.89,47.84626,-54.09684
2019-07-26 07:50:00+00:00,291.1447,14.9,12.89,47.84626,-54.09684
2019-07-26 08:00:00+00:00,290.5764,14.9,12.81,47.84626,-54.09684
2019-07-26 08:10:00+00:00,284.2547,14.9,12.73,47.84626,-54.09684
2019-07-26 08:20:00+00:00,272.4597,14.98,12.81,47.84626,-54.09684
2019-07-26 08:30:00+00:00,267.4398,15.0,12.81,47.84626,-54.09684
2019-07-26 08:40:00+00:00,270.0898,15.0,12.89,47.84626,-54.09684
2019-07-26 08:50:00+00:00,267.2047,15.0,12.89,47.84626,-54.09684
2019-07-26 09:00:00+00:00,261.4697,15.05,12.81,47.84626,-54.09684
2019-07-26 09:10:00+00:00,259.8848,15.03,12.73,47.84626,-54.09684
2019-07-26 09:20:00+00:00,257.3614,15.0,12.81,47.84626,-54.09684
2019-07-26 09:30:00+00:00,246.5864,15.07,12.89,47.84626,-54.09684
2019-07-26 09:40:00+00:00,243.3081,15.15,12.97,47.84626,-54.09684
2019-07-26 09:50:00+00:00,242.9614,15.18,12.97,47.84626,-54.09684
2019-07-26 10:00:00+00:00,236.3947,15.2,12.97,47.84626,-54.09684
2019-07-26 10:10:00+00:00,225.3548,15.22,12.89,47.84626,-54.09684
2019-07-26 10:20:00+00:00,222.5247,15.5,12.97,47.84626,-54.09684
2019-07-26 10:30:00+00:00,223.1298,15.6,13.05,47.84626,-54.09684
2019-07-26 10:40:00+00:00,217.4931,15.59,13.13,47.84626,-54.09684
2019-07-26 10:50:00+00:00,211.5331,15.62,13.29,47.84626,-54.09684
2019-07-26 11:00:00+00:00,215.5064,15.6,13.29,47.84626,-54.09684
2019-07-26 11:10:00+00:00,219.5497,15.48,13.29,47.84626,-54.09684
2019-07-26 11:20:00+00:00,215.1498,15.4,13.29,47.84626,-54.09684
2019-07-26 11:30:00+00:00,210.9531,15.7,13.44,47.84626,-54.09684
2019-07-26 11:40:00+00:00,220.5981,15.28,13.68,47.84626,-54.09684
2019-07-26 11:50:00+00:00,224.5298,15.02,14.0,47.84626,-54.09684
2019-07-26 12:00:00+00:00,216.7498,15.63,14.24,47.84626,-54.09684
2019-07-26 12:10:00+00:00,219.2148,15.6,14.4,47.84626,-54.09684
2019-07-26 12:20:00+00:00,228.7531,15.2,14.56,47.84626,-54.09684
2019-07-26 12:30:00+00:00,226.3531,15.3,14.64,47.84626,-54.09684
2019-07-26 12:40:00+00:00,219.2398,15.48,14.56,47.84626,-54.09684
2019-07-26 12:50:00+00:00,225.6581,15.2,14.64,47.84626,-54.09684
2019-07-26 13:00:00+00:00,232.8447,15.1,14.56,47.84626,-54.09684
2019-07-26 13:10:00+00:00,231.0481,15.4,14.48,47.84626,-54.09684
2019-07-26 13:20:00+00:00,229.9731,15.33,14.64,47.84626,-54.09684
2019-07-26 13:30:00+00:00,237.5081,15.1,14.56,47.84626,-54.09684
2019-07-26 13:40:00+00:00,235.6414,15.17,14.56,47.84626,-54.09684
2019-07-26 13:50:00+00:00,233.9431,15.4,14.56,47.84626,-54.09684
2019-07-26 14:00:00+00:00,237.5897,15.0,14.48,47.84626,-54.09684
2019-07-26 14:10:00+00:00,239.2781,14.93,14.48,47.84626,-54.09684
2019-07-26 14:20:00+00:00,239.9431,15.11,14.56,47.84626,-54.09684
2019-07-26 14:30:00+00:00,241.8898,15.17,14.56,47.84626,-54.09684
2019-07-26 14:40:00+00:00,244.1447,15.0,14.56,47.84626,-54.09684
2019-07-26 14:50:00+00:00,250.9664,14.81,14.48,47.84626,-54.09684
2019-07-26 15:00:00+00:00,256.8681,15.0,14.4,47.84626,-54.09684
2019-07-26 15:10:00+00:00,260.8381,14.98,14.4,47.84626,-54.09684
2019-07-26 15:20:00+00:00,261.9698,14.96,14.48,47.84626,-54.09684
2019-07-26 15:30:00+00:00,267.9747,15.0,14.48,47.84626,-54.09684
2019-07-26 15:40:00+00:00,272.1514,14.92,14.48,47.84626,-54.09684
2019-07-26 15:50:00+00:00,275.5764,15.0,14.4,47.84626,-54.09684
2019-07-26 16:00:00+00:00,279.2897,15.0,14.32,47.84626,-54.09684
2019-07-26 16:10:00+00:00,284.298,15.0,14.32,47.84626,-54.09684
2019-07-26 16:20:00+00:00,284.2247,14.9,14.32,47.84626,-54.09684
2019-07-26 16:30:00+00:00,288.9747,14.9,14.32,47.84626,-54.09684
2019-07-26 16:40:00+00:00,294.3781,14.9,14.32,47.84626,-54.09684
2019-07-26 16:50:00+00:00,300.238,14.9,14.32,47.84626,-54.09684
2019-07-26 17:00:00+00:00,301.8848,14.88,14.24,47.84626,-54.09684
2019-07-26 17:10:00+00:00,303.613,14.9,14.16,47.84626,-54.09684
2019-07-26 17:20:00+00:00,305.8563,14.9,14.16,47.84626,-54.09684
2019-07-26 17:30:00+00:00,312.488,14.9,14.24,47.84626,-54.09684
2019-07-26 17:40:00+00:00,314.5098,14.9,14.16,47.84626,-54.09684
2019-07-26 17:50:00+00:00,310.5963,14.99,14.16,47.84626,-54.09684
2019-07-26 18:00:00+00:00,313.553,15.0,14.08,47.84626,-54.09684
2019-07-26 18:10:00+00:00,323.4662,15.0,13.92,47.84626,-54.09684
2019-07-26 18:20:00+00:00,324.8214,15.0,14.08,47.84626,-54.09684
2019-07-26 18:30:00+00:00,315.8914,15.08,14.0,47.84626,-54.09684
2019-07-26 18:40:00+00:00,318.488,15.1,14.0,47.84626,-54.09684
2019-07-26 18:50:00+00:00,327.0129,15.05,14.0,47.84626,-54.09684
2019-07-26 19:00:00+00:00,322.8696,15.06,14.0,47.84626,-54.09684
2019-07-26 19:10:00+00:00,318.133,15.08,13.84,47.84626,-54.09684
2019-07-26 19:20:00+00:00,326.1113,15.0,13.92,47.84626,-54.09684
2019-07-26 19:30:00+00:00,331.2897,14.9,13.92,47.84626,-54.09684
2019-07-26 19:40:00+00:00,319.5897,15.0,14.0,47.84626,-54.09684
2019-07-26 19:50:00+00:00,316.8513,15.0,14.0,47.84626,-54.09684
2019-07-26 20:00:00+00:00,321.258,14.91,13.92,47.84626,-54.09684
2019-07-26 20:10:00+00:00,313.6613,15.19,13.84,47.84626,-54.09684
2019-07-26 20:20:00+00:00,300.4213,15.2,13.84,47.84626,-54.09684
2019-07-26 20:30:00+00:00,302.7013,15.1,13.84,47.84626,-54.09684
2019-07-26 20:40:00+00:00,299.783,15.09,13.84,47.84626,-54.09684
2019-07-26 20:50:00+00:00,286.0414,15.1,13.84,47.84626,-54.09684
2019-07-26 21:00:00+00:00,281.738,15.1,13.68,47.84626,-54.09684
2019-07-26 21:10:00+00:00,281.0648,15.26,13.6,47.84626,-54.09684
2019-07-26 21:20:00+00:00,272.9147,15.38,13.6,47.84626,-54.09684
2019-07-26 21:30:00+00:00,264.8814,15.49,13.6,47.84626,-54.09684
2019-07-26 21:40:00+00:00,263.2564,15.59,13.6,47.84626,-54.09684
2019-07-26 21:50:00+00:00,256.4597,15.64,13.6,47.84626,-54.09684
2019-07-26 22:00:00+00:00,246.7181,15.78,13.53,47.84626,-54.09684
2019-07-26 22:10:00+00:00,244.7614,15.99,13.37,47.84626,-54.09684
2019-07-26 22:20:00+00:00,243.6747,16.1,13.37,47.84626,-54.09684
2019-07-26 22:30:00+00:00,236.1731,16.14,13.29,47.84626,-54.09684
2019-07-26 22:40:00+00:00,231.1981,16.27,13.29,47.84626,-54.09684
2019-07-26 22:50:00+00:00,230.2464,16.2,13.29,47.84626,-54.09684
2019-07-26 23:00:00+00:00,225.0898,17.28,13.21,47.84626,-54.09684
2019-07-26 23:10:00+00:00,221.8647,17.55,13.05,47.84626,-54.09684
2019-07-26 23:20:00+00:00,219.2264,17.5,13.05,47.84626,-54.09684
2019-07-26 23:30:00+00:00,215.3065,17.49,13.05,47.84626,-54.09684
2019-07-26 23:40:00+00:00,215.5548,17.58,13.05,47.84626,-54.09684
2019-07-26 23:50:00+00:00,219.7598,17.6,13.05,47.84626,-54.09684
